CZ-3A DEB, 35557

Orbit data source: Space-Track

CZ-3A DEB, 35557 is space debris in HEO originally from a launch on Fri, 02 Feb 2007 UTC launched from the Xichang Space Center, China (XSC). Debris objects in space refer to the collection of defunct objects orbiting the Earth. Examples of debris include non-operational satellites, rocket bodies, and fragments generated from explosions, collisions, or faulty payload assembly.

Loading next visibility...
Identifier
35557, 2007-003R
Orbit
HEO
Country
Flag of CNCN / PRC
Related business
Manufacturer
Unknown
Mission
Spacecraft
Bus & Motor
Unknown
Mass
Unknown
Launch date (UTC)
2007-02-02 (19 years ago)
Launch vehicle
Unknown
Launch site
Xichang Space Center, China (XSC)
Object type
Payload
Rocket body
Debris
Shape & HBR
Unknown shape, 0.3 m
Radar Cross Section
Medium (>0.1 m² and <1 m²)

Expand to show TLE details & history
Last TLE update: 3 days ago

TLE from 3 days ago
0 CZ-3A DEB
1 35557U 07003R   26171.00521963  .00009601  00000-0  92543-2 0  9999
2 35557  23.2033  86.3462 6378564 320.5093   7.2262  3.41134874 22626
Epoch: 2026-06-20T00:07Z
TLE epoch observation values (Epoch: 2026-06-20T00:07:30.976Z)
Latitude
0.00004°
Longitude
176.20578°
Altitude
1,031.487 km
Speed
9.284 km/s
True Right ascension
05h 45m 14s
True Declination
0° 00' 00"
Sunlit
Object was in daylight at epoch
Visualization orbit readout
Latitude
Unknown
Longitude
Unknown
Altitude
Unknown
Speed
Unknown
Apparent Right ascension
Unknown
Apparent Declination
Unknown
Sunlit
N/A
Visualization observer readout
Local Sidereal Time
04:00:00
Azimuth
Unknown
Elevation
Unknown
Doppler factor
Unknown
Orbital elements
Apogee altitude
24,158.389 km
Perigee altitude
373.742 km
Semi-major axis
18,644.203 km
Eccentricity
0.63786
Inclination
23.2033°
RAAN
86.3462°
Arg. of periapsis
320.5093°
True anomaly
39.78658°
Mean anomaly
7.2262°
Eccentric anomaly
19.31341°
Mean motion
0.85256 °/min
Orbital period
422.26 mins
BSTAR
0.0092543
Loading maneuver chart data...
Computing Atmospheric mass density...
Loading historical data...
Loading historical data...
Loading historical data...
Loading historical data...
Loading historical data...
Loading historical data...
Loading historical data...

Documentation

Showing up to 5 results
|